Regional Weather Roundup
Issued by NWS Mt. Holly, NJ

Home | Current Version | Previous Version | Text Only | Print | Product List | Glossary On
Versions: 1 2 3 4 5 6 7 8 9 10 11 12 13 14 15 16 17 18 19 20 21 22 23 24 25 26 27
000
ASUS41 KPHI 211012
RWRPHI

REGIONAL WEATHER ROUNDUP
NATIONAL WEATHER SERVICE MOUNT HOLLY NJ
600 AM EDT THU SEP 21 2017

NOTE:  "FAIR" INDICATES FEW OR NO CLOUDS BELOW 12,000 FEET WITH NO
SIGNIFICANT WEATHER AND/OR OBSTRUCTIONS TO VISIBILITY.

 * = STATION DOES NOT REPORT PRECIPITATION (E.G. RAIN, SNOW, ETC.)
        OR FOG.

NJZ015>026-211100-
SOUTHERN NEW JERSEY

CITY           SKY/WX    TMP DP  RH WIND       PRES   REMARKS
POMONA         CLOUDY    67  64  90 NW5       29.98R
WILDWOOD*      CLOUDY    72  67  84 N5        29.99R
MILLVILLE      CLOUDY    70  67  90 NW5       29.99R
WRIGHTSTOWN    CLOUDY    68  64  87 NW7       29.97R
MOUNT HOLLY      N/A    N/A N/A N/A MISG      30.00R
TRENTON        MOCLDY    68  63  84 NW5       30.00R

$$
NJZ001>014-211100-
NORTHERN NEW JERSEY

CITY           SKY/WX    TMP DP  RH WIND       PRES   REMARKS
SUSSEX         CLOUDY    62  62 100 CALM      30.03R
ANDOVER*         N/A     61  61 100 CALM      30.03R
MORRISTOWN     CLOUDY    68  64  88 NW3       30.00R
NEWARK         CLOUDY    73  64  73 N12       29.97R
TETERBORO      MOCLDY    71  65  81 NW6       29.96R
CALDWELL       MOCLDY    70  65  84 NW3       29.99R
ALLAIRE*       CLOUDY    67  64  90 NW8       29.98R
TOMS RIVER*    CLOUDY    68  64  87 NW9       29.98R

$$
PAZ043-044-047-054-055-060>062-066>071-211100-
EASTERN PENNSYLVANIA

CITY           SKY/WX    TMP DP  RH WIND       PRES   REMARKS
PHILADELPHIA   MOCLDY    71  63  75 N7        30.01R
NORTH PHILA    PTCLDY    70  63  78 NW8       30.02R
BLUE BELL*     CLOUDY    63  63 100 CALM      30.04R
DOYLESTOWN     MOCLDY    68  62  81 N3        30.02R
QUAKERTOWN*    CLOUDY    63  63 100 CALM      30.05R
PERKASIE*      CLOUDY    64  64 100 NE3       30.05R
POTTSTOWN      CLOUDY    65  63  93 NW3       30.05R
LANCASTER      PTCLDY    63  63 100 W6        30.04R
COATESVILLE    MOCLDY    66  63  88 NW6       30.06R
READING        PTCLDY    63  62  97 CALM      30.04R
ALLENTOWN      PTCLDY    63  59  87 W3        30.04R
MOUNT POCONO   PTCLDY    62  61  96 N6        30.09R
HAZLETON         N/A     61  55  82 CALM      30.13R
LEHIGHTON      FAIR      55  55 100 CALM      30.06R FOG
WILKES BARRE   PTCLDY    63  61  93 SW5       30.09R

$$
DEZALL-MDZ008-012-015-019-020-211100-
DELAWARE AND EASTERN MARYLAND

CITY           SKY/WX    TMP DP  RH WIND       PRES   REMARKS
WILMINGTON     CLOUDY    65  63  93 NW6       30.02R
DOVER          PTCLDY    66 N/A N/A NW5       29.98R
GEORGETOWN     MOCLDY    66  64  93 CALM      30.00R
EASTON         CLEAR     68  66  94 CALM      30.04R
ABERDEEN       PTCLDY    64  62  91 CALM      30.02R
PATUXENT       CLEAR     66  65  96 CALM      30.00R
OCEAN CITY     PTCLDY   N/A N/A N/A NW5       29.99R
WALLOPS ISLAND CLEAR     65  65 100 NW6       29.99R
CAMBRIDGE      CLEAR     66  66 100 CALM      29.99R
SALISBURY      CLEAR     65  65 100 CALM      29.99R

$$
PAZ001-021-NYZ056-072-MDZ011-DCZ001-211100-
OTHER NEARBY LOCATIONS

CITY           SKY/WX    TMP DP  RH WIND       PRES   REMARKS
HARRISBURG     CLOUDY    67  63  87 NW9       30.05R
STATE COLLEGE  CLEAR     59  57  94 CALM      30.11R
WILLIAMSPORT   CLOUDY    63  62  97 W6        30.07S FOG
BINGHAMTON     PTCLDY    60  60 100 NW6       30.10S
NEW YORK CITY  CLOUDY    72  64  76 N6        29.99S
BALTIMORE      CLEAR     61  61 100 W3        30.02R
WASHINGTON DC  CLEAR     68  62  81 N6        30.03R

$$




USA.gov is the U.S. government's official web portal to all federal, state and local government web resources and services.